Location: Newark
(3.0500°N, 36.0167°E)
Time: 15:22:35
(UTC+00:00)

A-11 Canister half - Pass Details

Date: 30 August 2019
Orbit: 1527 x 1682 km, 47.3° (Epoch: 17 September)

Event Time Altitude Azimuth Distance (km) Brightness Sun altitude
Rises 03:30:38 0° 206° (SSW) 4,682 11.2 -1.0°
Reaches altitude 10° 03:33:50 10° 200° (SSW) 3,708 10.7 -0.2°
Maximum altitude 03:42:41 47° 129° (SE) 1,987 10.1 1.9°
Drops below altitude 10° 03:51:45 10° 58° (ENE) 3,802 12.6 4.2°
Sets 03:55:03 0° 53° (NE) 4,808 12.9 5.0°
